#timestamp,LO_Frequency,Hit,StdDev 
1669143615.0,286047002.8,N
1669143615.9,286047002.8,N
1669143635.8,286046998.6,N
1669143655.6,286047000.3,N
1669143675.4,286047000.1,N
1669143695.3,286047000.0,N
1669143715.1,286047000.6,N
1669143735.9,286046997.8,N
1669143755.7,286046997.5,N
1669143775.5,286046994.9,Y
1669143795.4,286046998.8,P
1669143815.2,286046998.1,N
1669143835.0,286047000.9,N
1669143835.9,286047000.9,N
1669143855.8,286046998.7,N
1669143905.7,286046999.4,E
1669143915.6,286046998.4,N
1669143935.4,286046998.8,P
1669143955.2,286046998.6,P
1669143975.1,286047000.1,N
1669143976.0,286047000.1,N
1669143995.8,286047000.7,N
1669144015.7,286047000.3,N
1669144035.5,286046999.0,N
1669144055.3,286046996.1,Y
1669144075.2,286046995.7,P
1669144095.0,286046997.4,N
1669144095.9,286046997.4,N
1669144115.8,286046999.3,N
1669144135.6,286047000.3,N
1669144155.4,286047002.8,N
1669144175.3,286047002.2,N
1669144195.1,286047000.2,N
1669144196.0,286047000.2,N
1669144215.8,286046998.6,N
1669144235.7,286047000.8,N
1669144255.5,286046999.7,N
1669144275.3,286047002.1,N
1669144295.2,286047004.2,N
1669144315.0,286047003.2,N
1669144315.9,286047003.2,N
1669144335.8,286047003.5,N
1669144355.6,286047005.4,N
1669144375.4,286047003.7,N
1669144395.3,286047003.8,N
1669144415.1,286047004.0,N
1669144435.8,286047004.4,N
1669144455.7,286047004.0,N
1669144475.5,286047005.0,N
1669144495.4,286047005.0,N
1669144515.2,286047003.1,N
1669144535.0,286047004.8,N
1669144535.9,286047004.8,N
1669144555.8,286047003.6,N
1669144575.6,286047001.5,N
1669144595.4,286047002.5,N
1669144615.3,286046998.6,N
1669144635.1,286047002.2,N
1669144655.9,286047004.0,N
1669144675.7,286047002.0,N
1669144695.5,286047000.1,N
1669144715.4,286047001.6,N
1669144735.2,286047001.9,N
1669144755.1,286047003.9,N
1669144756.0,286047003.9,N
1669144775.8,286047006.0,Y
1669144795.6,286047002.4,P
1669144815.5,286046999.2,N
1669144835.3,286046996.0,N
1669144855.2,286046994.7,N
1669144875.9,286046996.3,N
1669144895.7,286046995.1,N
1669144915.6,286046999.1,N
1669144935.4,286047011.9,Y
1669144955.2,286046997.6,P
1669144975.1,286046997.5,P
1669144976.0,286046997.5,P
1669144995.8,286046997.8,Y
1669145015.7,286047001.1,P
1669145035.5,286047001.3,N
1669145055.3,286047003.2,N
1669145075.2,286047001.5,N
1669145095.0,286047002.8,N
1669145095.9,286047002.8,N
1669145115.8,286047002.2,N
1669145135.6,286047002.1,N
1669145155.4,286047002.3,N
1669145175.3,286046998.6,N
1669145195.1,286046998.5,N
1669145215.8,286046999.1,N
1669145235.7,286046998.4,N
1669145255.5,286046999.5,N
1669145275.4,286046999.6,N
1669145295.2,286047002.1,N
1669145315.0,286047002.3,N
1669145315.9,286047011.9,Y
1669145335.8,286047002.7,P
1669145355.6,286047000.0,N
1669145375.4,286047000.7,N
1669145395.3,286047000.3,N
1669145415.1,286046998.7,N
1669145435.9,286047001.1,N
1669145455.7,286046999.2,N
1669145475.5,286046996.6,N
1669145495.4,286046998.9,N
1669145515.2,286046999.9,N
1669145535.0,286047000.5,N
1669145535.9,286047000.5,N
1669145555.8,286046997.1,N
1669145575.6,286046995.3,Y
1669145595.5,286046999.2,P
1669145615.3,286046999.0,P
1669145635.1,286047000.4,N
1669145655.9,286047000.1,N
1669145675.7,286047001.3,N
1669145695.5,286047002.2,N
1669145715.4,286047002.8,N
1669145735.2,286047000.4,N
1669145755.1,286047004.0,Y
1669145756.0,286047004.0,P
1669145775.8,286047001.7,N
1669145795.6,286047001.3,N
1669145815.5,286047003.0,N
1669145835.3,286047005.5,Y
1669145855.2,286047005.3,P
1669145875.9,286047005.8,P
1669145895.7,286047004.2,N
1669145915.6,286047002.5,N
1669145935.4,286047000.0,N
1669145955.2,286046999.9,N
1669145975.1,286047002.1,N
1669145976.0,286047002.1,N
1669145995.8,286047003.3,N
1669146015.7,286047003.7,N
1669146035.5,286047001.6,N
1669146055.3,286047002.2,N
1669146075.2,286047001.3,N
1669146095.0,286047005.9,Y
1669146095.9,286047005.9,P
1669146115.7,286046998.1,N
1669146135.6,286046997.0,N
1669146155.4,286046998.6,N
1669146175.3,286047001.1,N
1669146195.1,286046999.5,N
1669146196.0,286046999.5,N
1669146215.8,286046996.5,N
1669146235.7,286046997.2,N
1669146255.5,286046997.7,N
1669146275.3,286046998.6,N
1669146295.2,286046999.6,N
1669146315.0,286046999.5,N
1669146315.9,286046999.5,N
1669146335.8,286046996.6,N
1669146355.6,286046997.3,N
1669146375.4,286046998.9,N
1669146395.3,286046998.2,N
1669146415.1,286046999.1,N
1669146435.8,286046995.4,N
1669146455.7,286046993.3,Y
1669146475.5,286046997.9,P
1669146495.4,286046999.6,N
1669146515.2,286046997.8,P
1669146535.0,286046999.6,N
1669146535.9,286046999.6,N
1669146555.8,286046997.8,N
1669146575.6,286046996.7,Y
1669146595.5,286046999.0,P
1669146615.3,286046997.0,P
1669146635.1,286046999.1,N
1669146655.9,286046996.6,Y
1669146675.7,286046998.8,P
1669146695.5,286046998.6,P
1669146715.4,286047000.4,N
1669146735.2,286046998.4,N
1669146755.1,286046998.1,N
1669146756.0,286046998.1,N
1669146775.8,286046996.8,Y
1669146795.6,286046998.1,P
1669146815.5,286046998.5,P
1669146835.3,286046997.0,P
1669146855.1,286046995.3,Y
1669146875.9,286046998.8,P
1669146895.7,286046999.2,N
1669146915.6,286046999.0,N
1669146935.4,286047001.2,N
1669146955.2,286047000.5,N
1669146975.1,286047002.4,N
1669146976.0,286047002.4,N
1669146995.8,286047004.0,N
1669147015.6,286047002.0,N
1669147035.5,286047004.4,N
1669147055.3,286047002.1,N
1669147075.2,286047001.7,N
1669147095.9,286047002.0,N
1669147115.7,286047001.8,N
1669147135.6,286047002.6,N
1669147155.4,286047001.9,N
1669147175.2,286047000.7,N
1669147195.1,286046998.2,N
1669147196.0,286046998.2,N
